sat.trackr.live / text

‹ back to catalog

2025-313AG

NORAD 67278 · 2025-313AG

PAYLOAD ACTIVE UNKNOWN

§ Identity

Operator
Country
TBD
Launch date
2025-12-28
Launch site
VOSTO
Launch vehicle
Mass (kg)
RCS (m²)

External: N2YO · Heavens-Above · Gunter

§ Orbital elements

Epoch: 2026-09-20T22:38:03.012288Z

Period
94.52 min
Inclination
97.3817°
Eccentricity
0.0014898
Mean motion
15.23498678 rev/d
Perigee alt
485.1 km
Apogee alt
505.5 km
Semi-major
6,873.4 km
B*
1.7160e-4
RAAN
336.9247°
Arg perigee
37.0377°
Mean anomaly
323.1886°
Rev number
4,053

§ Raw data

2025-313AG1 67278U 25313AG  26263.94309042  .00004035  00000+0  17160-3 0  99932 67278  97.3817 336.9247 0014898  37.0377 323.1886 15.23498678 40534

JSON: /api/v1/satellites/67278 · /tle

For live sub-satellite position, see the globe view (requires WebGL).

§ Visibility from observer

Set your observer location to see the next 7 days of passes ≥ 10°. The values pass through the URL so the page stays shareable.

No JS? Fill the form by hand. The geolocation button needs JavaScript.